This is the latest recevied weather packets stored in our database for station/object KJ5IIV. If no packets are shown the sender has not sent any weather packets the latest 10 day(s).
| Time | Temp. | Humidity | Pressure | Rain* | Wind** | Luminosity | Snow |
|---|---|---|---|---|---|---|---|
| 1777862473 | 18.33° C | 62% | 1016.7 hPa | 0 mm | - | 0 W/m² | - |
| 1777862169 | 18.33° C | 62% | 1016.7 hPa | 0 mm | - | 0 W/m² | - |
| 1777861865 | 18.33° C | 61% | 1016.7 hPa | 0 mm | - | 0 W/m² | - |
| 1777861562 | 18.33° C | 61% | 1016.6 hPa | 0 mm | - | 0 W/m² | - |
| 1777861258 | 18.89° C | 61% | 1016.3 hPa | 0 mm | - | 0 W/m² | - |
| 1777860955 | 18.89° C | 59% | 1016.4 hPa | 0 mm | - | 0 W/m² | - |
| 1777860652 | 18.89° C | 60% | 1016.4 hPa | 0 mm | - | 0 W/m² | - |
| 1777860349 | 18.89° C | 60% | 1016.4 hPa | 0 mm | - | 0 W/m² | - |
| 1777860045 | 19.44° C | 59% | 1016.3 hPa | 0 mm | - | 0 W/m² | - |
| 1777859742 | 19.44° C | 59% | 1016.3 hPa | 0 mm | - | 0 W/m² | - |
| 1777859438 | 19.44° C | 60% | 1016.2 hPa | 0 mm | - | 0 W/m² | - |
| 1777859134 | 19.44° C | 56% | 1016.2 hPa | 0 mm | - | 0 W/m² | - |
| 1777858832 | 19.44° C | 60% | 1016.5 hPa | 0 mm | - | 0 W/m² | - |
| 1777858529 | 19.44° C | 59% | 1016.4 hPa | 0 mm | - | 0 W/m² | - |
| 1777858226 | 20° C | 61% | 1016.3 hPa | 0 mm | - | 0 W/m² | - |
| 1777857924 | 20° C | 60% | 1016.2 hPa | 0 mm | - | 0 W/m² | - |
| 1777857621 | 20° C | 58% | 1016 hPa | 0 mm | - | 0 W/m² | - |
| 1777857317 | 20.56° C | 56% | 1016.3 hPa | 0 mm | - | 1 W/m² | - |
| 1777857014 | 20.56° C | 57% | 1016.1 hPa | 0 mm | - | 1 W/m² | - |
| 1777856710 | 20.56° C | 55% | 1016.1 hPa | 0 mm | - | 2 W/m² | - |
| 1777856405 | 21.11° C | 54% | 1016 hPa | 0 mm | - | 4 W/m² | - |
| 1777856102 | 21.11° C | 52% | 1016 hPa | 0 mm | - | 7 W/m² | - |
| 1777855800 | 21.67° C | 52% | 1016.1 hPa | 0 mm | - | 11 W/m² | - |
| 1777855498 | 21.67° C | 53% | 1016.1 hPa | 0 mm | - | 15 W/m² | - |
| 1777855194 | 22.22° C | 50% | 1016 hPa | 0 mm | - | 17 W/m² | - |
* Rain latest hour (hover to see other rain measurements)
** Current wind speed in m/s (hover to see current wind gust speed)